STARLINK-32663 (62197 NORAD) Tracking and Keplerian Element Data

This shows tracking and keplerian element data for the satellite.

Feedback or suggestion? Click here.




ElementValue
Catalog62197
NameSTARLINK-32663
Epoch Orbit947
Epoch Day34.31450092
Epoch Year2025
RAAN6.9066
Inclination43.0033
Eccentricity7.36E-05
Argument of Perigee261.5662
Mean Anonmoly98.5108
Mean Motion15.32107284
Decay Rate-3.48E-06
L11 62197U 24229F 25034.31450092 -.00000348 00000+0 -22925-5 0 9993
L22 62197 43.0033 6.9066 0000736 261.5662 98.5108 15.32107284 9475



Live tracking and technical data element details for STARLINK-32663 (NORAD 62197). STARLINK-32663 can be tracked NOW for your location showing map with azimuth and elevation plus other details from your city location.







IsCatalogInMostPopularTable: catalog: 62197, numindb: 14
Update: records affected: 1



GetName: 62197 STARLINK-32663

Hit Count: updated at: Mon, 19 May 2025 03:17:15 GMT